When you browse on this site, cookies collect data to enhance your experience and personalize the content and advertising you see.
Visit our Privacy Policy to learn more. By continuing to use the site, you agree to this use of cookies and data.
  • In United Kingdom
  • List of Countries
  • For 7 days
  • Water Temperature
  • Weather Map
  • Weather Widgets
  • user-avatar
    Login

    Hourly Weather Rechytsa

    Today, 26 February, Wednesday

    Time Temperature Precipitation Wind Pressure Humidity
    00:00 +2°C° 0.1 mm 5 mps 738 mmHg 92%
    01:00 +3°C° 0.1 mm 4 mps 738 mmHg 92%
    02:00 +3°C° 0.1 mm 4 mps 737 mmHg 92%
    03:00 +3°C° 0.3 mm 4 mps 737 mmHg 93%
    04:00 +3°C° 0.3 mm 4 mps 736 mmHg 94%
    05:00 +3°C° 0.3 mm 4 mps 735 mmHg 95%
    06:00 +3°C° 0.4 mm 4 mps 735 mmHg 93%
    07:00 +3°C° 0.4 mm 4 mps 735 mmHg 92%
    08:00 +3°C° 0.4 mm 4 mps 734 mmHg 90%
    09:00 +3°C° 0 mm 4 mps 734 mmHg 89%
    10:00 +4°C° 0 mm 4 mps 734 mmHg 88%
    11:00 +5°C° 0 mm 3 mps 734 mmHg 87%
    12:00 +5°C° 0 mm 3 mps 734 mmHg 86%
    13:00 +7°C° 0 mm 3 mps 734 mmHg 84%
    14:00 +7°C° 0 mm 2 mps 734 mmHg 83%
    15:00 +7°C° 0 mm 2 mps 734 mmHg 84%
    16:00 +7°C° 0 mm 2 mps 734 mmHg 86%
    17:00 +8°C° 0 mm 1 mps 734 mmHg 88%
    18:00 +6°C° 0 mm 2 mps 734 mmHg 90%
    19:00 +6°C° 0 mm 2 mps 734 mmHg 91%
    20:00 +6°C° 0 mm 2 mps 734 mmHg 93%
    21:00 +5°C° 0.9 mm 3 mps 733 mmHg 93%
    22:00 +5°C° 0.9 mm 3 mps 733 mmHg 94%
    23:00 +5°C° 0.9 mm 4 mps 733 mmHg 94%

    Tomorrow, 27 February, Thursday

    Time Temperature Precipitation Wind Pressure Humidity
    00:00 +5°C° 0.2 mm 4 mps 732 mmHg 93%
    01:00 +6°C° 0.2 mm 4 mps 732 mmHg 92%
    02:00 +6°C° 0.2 mm 5 mps 732 mmHg 90%
    03:00 +5°C° 0.1 mm 4 mps 732 mmHg 90%
    04:00 +5°C° 0.1 mm 4 mps 732 mmHg 90%
    05:00 +4°C° 0.1 mm 4 mps 732 mmHg 89%
    06:00 +4°C° 0 mm 4 mps 732 mmHg 89%
    07:00 +4°C° 0 mm 4 mps 733 mmHg 88%
    08:00 +3°C° 0 mm 4 mps 733 mmHg 87%
    09:00 +4°C° 0 mm 4 mps 733 mmHg 84%
    10:00 +4°C° 0 mm 4 mps 734 mmHg 81%
    11:00 +5°C° 0 mm 4 mps 734 mmHg 78%
    12:00 +5°C° 0 mm 4 mps 734 mmHg 74%
    13:00 +6°C° 0 mm 4 mps 735 mmHg 70%
    14:00 +6°C° 0 mm 4 mps 735 mmHg 66%
    15:00 +5°C° 0 mm 4 mps 735 mmHg 68%
    16:00 +4°C° 0 mm 4 mps 735 mmHg 70%
    17:00 +4°C° 0 mm 4 mps 736 mmHg 72%
    18:00 +3°C° 0 mm 4 mps 736 mmHg 73%
    19:00 +1°C° 0 mm 4 mps 736 mmHg 74%
    20:00 0°C° 0 mm 4 mps 737 mmHg 76%
    21:00 +1°C° 0 mm 3 mps 737 mmHg 77%
    22:00 0°C° 0 mm 3 mps 737 mmHg 78%
    23:00 +1°C° 0 mm 2 mps 737 mmHg 78%

    Day after tomorrow, 28 February, Friday

    Time Temperature Precipitation Wind Pressure Humidity
    00:00 +1°C° 0 mm 2 mps 737 mmHg 81%
    01:00 -1°C° 0 mm 3 mps 738 mmHg 83%
    02:00 -1°C° 0 mm 3 mps 738 mmHg 85%
    03:00 -1°C° 0 mm 3 mps 738 mmHg 85%
    04:00 -2°C° 0 mm 3 mps 738 mmHg 85%
    05:00 -2°C° 0 mm 3 mps 738 mmHg 84%
    06:00 -2°C° 0 mm 3 mps 738 mmHg 82%
    07:00 -2°C° 0 mm 3 mps 739 mmHg 80%
    08:00 -2°C° 0 mm 3 mps 739 mmHg 78%
    09:00 0°C° 0 mm 3 mps 739 mmHg 70%
    10:00 +1°C° 0 mm 3 mps 739 mmHg 62%
    11:00 +2°C° 0 mm 3 mps 739 mmHg 53%
    12:00 +2°C° 0 mm 3 mps 740 mmHg 53%
    13:00 +2°C° 0 mm 3 mps 740 mmHg 52%
    14:00 +3°C° 0 mm 3 mps 740 mmHg 51%
    15:00 +2°C° 0 mm 3 mps 740 mmHg 56%
    16:00 +3°C° 0 mm 2 mps 740 mmHg 61%
    17:00 +4°C° 0 mm 1 mps 740 mmHg 66%
    18:00 +2°C° 0 mm 2 mps 741 mmHg 68%
    19:00 +2°C° 0 mm 2 mps 741 mmHg 70%
    20:00 +1°C° 0 mm 2 mps 741 mmHg 72%
    21:00 +2°C° 0 mm 1 mps 741 mmHg 73%
    22:00 +2°C° 0 mm 1 mps 741 mmHg 74%
    23:00 +2°C° 0 mm 1 mps 741 mmHg 74%

    29 February, Saturday

    Time Temperature Precipitation Wind Pressure Humidity
    00:00 +2°C° 0.1 mm 1 mps 741 mmHg 81%
    01:00 +2°C° 0.1 mm 1 mps 741 mmHg 87%
    02:00 +1°C° 0.1 mm 1 mps 741 mmHg 94%
    03:00 -1°C° 0.7 mm 2 mps 741 mmHg 95%
    04:00 -1°C° 0.7 mm 3 mps 741 mmHg 96%
    05:00 -1°C° 0.7 mm 3 mps 741 mmHg 97%
    06:00 -1°C° 0.4 mm 3 mps 742 mmHg 96%
    07:00 -1°C° 0.4 mm 3 mps 742 mmHg 94%
    08:00 0°C° 0.4 mm 3 mps 742 mmHg 92%
    09:00 0°C° 0 mm 3 mps 742 mmHg 89%
    10:00 +1°C° 0 mm 3 mps 743 mmHg 85%
    11:00 +1°C° 0 mm 3 mps 743 mmHg 82%
    12:00 +1°C° 0 mm 4 mps 743 mmHg 79%
    13:00 +1°C° 0 mm 4 mps 743 mmHg 76%
    14:00 +1°C° 0 mm 5 mps 743 mmHg 74%
    15:00 +1°C° 0 mm 4 mps 743 mmHg 75%
    16:00 0°C° 0 mm 4 mps 744 mmHg 76%
    17:00 0°C° 0 mm 4 mps 744 mmHg 78%
    18:00 -1°C° 0 mm 4 mps 744 mmHg 82%
    19:00 0°C° 0 mm 3 mps 745 mmHg 86%
    20:00 -1°C° 0 mm 3 mps 745 mmHg 90%
    21:00 -1°C° 0 mm 3 mps 745 mmHg 90%
    22:00 -2°C° 0 mm 3 mps 745 mmHg 91%
    23:00 -2°C° 0 mm 3 mps 746 mmHg 91%

    1 March, Sunday

    Time Temperature Precipitation Wind Pressure Humidity
    00:00 -2°C° 0 mm 2 mps 746 mmHg 90%
    01:00 -2°C° 0 mm 2 mps 746 mmHg 89%
    02:00 -3°C° 0 mm 2 mps 746 mmHg 88%
    03:00 -2°C° 0 mm 2 mps 746 mmHg 87%
    04:00 -2°C° 0 mm 2 mps 746 mmHg 86%
    05:00 -2°C° 0 mm 3 mps 746 mmHg 84%
    06:00 -2°C° 0 mm 3 mps 745 mmHg 82%
    07:00 -2°C° 0 mm 4 mps 745 mmHg 79%
    08:00 -1°C° 0 mm 5 mps 745 mmHg 77%
    09:00 0°C° 0 mm 5 mps 745 mmHg 73%
    10:00 +1°C° 0 mm 6 mps 745 mmHg 69%
    11:00 +2°C° 0 mm 7 mps 745 mmHg 65%
    12:00 +3°C° 0 mm 7 mps 744 mmHg 64%
    13:00 +3°C° 0 mm 7 mps 743 mmHg 62%
    14:00 +4°C° 0 mm 7 mps 743 mmHg 61%
    15:00 +4°C° 0 mm 6 mps 743 mmHg 63%
    16:00 +3°C° 0 mm 5 mps 742 mmHg 65%
    17:00 +3°C° 0 mm 5 mps 742 mmHg 68%
    18:00 +3°C° 0.2 mm 4 mps 742 mmHg 71%
    19:00 +3°C° 0.2 mm 4 mps 742 mmHg 75%
    20:00 +3°C° 0.2 mm 4 mps 742 mmHg 79%
    21:00 +3°C° 0.2 mm 4 mps 741 mmHg 82%
    22:00 +3°C° 0.2 mm 4 mps 741 mmHg 86%
    23:00 +3°C° 0.2 mm 4 mps 741 mmHg 90%

    2 March, Monday

    Time Temperature Precipitation Wind Pressure Humidity
    00:00 +3°C° 0.1 mm 4 mps 741 mmHg 91%
    01:00 +3°C° 0.1 mm 4 mps 740 mmHg 93%
    02:00 +3°C° 0.1 mm 4 mps 740 mmHg 94%
    03:00 +3°C° 0 mm 3 mps 740 mmHg 94%
    04:00 +3°C° 0 mm 3 mps 740 mmHg 94%
    05:00 +2°C° 0 mm 3 mps 740 mmHg 94%
    06:00 +4°C° 0.2 mm 2 mps 740 mmHg 95%
    07:00 +4°C° 0.2 mm 2 mps 740 mmHg 95%
    08:00 +4°C° 0.2 mm 2 mps 740 mmHg 96%
    09:00 +4°C° 0.1 mm 2 mps 740 mmHg 93%
    10:00 +6°C° 0.1 mm 1 mps 741 mmHg 89%
    11:00 +7°C° 0.1 mm 1 mps 741 mmHg 86%
    12:00 +7°C° 0 mm 1 mps 741 mmHg 83%
    13:00 +8°C° 0 mm 1 mps 741 mmHg 79%
    14:00 +8°C° 0 mm 1 mps 741 mmHg 76%
    15:00 +8°C° 0 mm 1 mps 741 mmHg 78%
    16:00 +8°C° 0 mm 1 mps 741 mmHg 80%
    17:00 +8°C° 0 mm 1 mps 741 mmHg 81%
    18:00 +7°C° 0 mm 1 mps 742 mmHg 83%
    19:00 +5°C° 0 mm 2 mps 742 mmHg 85%
    20:00 +5°C° 0 mm 2 mps 742 mmHg 86%
    21:00 +5°C° 0 mm 2 mps 742 mmHg 88%
    22:00 +4°C° 0 mm 2 mps 742 mmHg 89%
    23:00 +4°C° 0 mm 2 mps 742 mmHg 91%
    Show more